Weather History for KPIR - December, 2013

Change the Weather History Date:

Tuesday, December 24, 2013

  Actual Average Record
Temperature  
Mean Temperature 16 °F 20 °F  
Max Temperature 32 °F 30 °F 54 °F (1999)
Min Temperature 0 °F 10 °F -19 °F (1983)
Degree Days  
Heating Degree Days 49 45  
Month to date heating degree days 1282 1025  
Since 1 July heating degree days 2901 2645  
Cooling Degree Days 0 0  
Month to date cooling degree days 0 0  
Year to date cooling degree days 853 868  
Moisture  
Dew Point 13 °F    
Average Humidity 82    
Maximum Humidity 92    
Minimum Humidity 72    
Precipitation  
Precipitation 0.11 in 0.02 in 0.34 in (1925)
Month to date precipitation 1.29 0.43  
Year to date precipitation 24.37 19.89  
Snow  
Snow 0.00 in 0.20 in 3.20 in (1948)
Month to date snowfall 12.9 3.9  
Since 1 July snowfall 14.9 10.2  
Snow Depth 9.00 in    
Sea Level Pressure  
Sea Level Pressure 30.09 in    
Wind  
Wind Speed 11 mph (WSW)    
Max Wind Speed 23 mph    
Max Gust Speed 26 mph    
Visibility 8 miles    
Events Rain , Snow    
T = Trace of Precipitation, MM = Missing Value Source: NWS Daily Summary

Daily Weather History Graph

Daily Weather History Graph

Search for Another Location

Airport or City:

Trip Planner

Search our weather history database for the weather conditions in past years. The results will help you decide how hot, cold, wet, or windy it might be!

Date:

Astronomy

Dec. 24, 2013 Rise Set
Actual Time 8:15 AM CST 5:06 PM CST
Civil Twilight 7:42 AM CST 5:39 PM CST
Nautical Twilight 7:05 AM CST 6:16 PM CST
Astronomical Twilight 6:29 AM CST 6:52 PM CST
Moon No Moon Rise 11:55 AM CST (12/24)
Length of Visible Light 9h 57m
Length of Day
8h 50m
Waning Gibbous, 58% of the Moon is Illuminated
Dec 24
Waning Gibbous
Dec 25
Last Quarter
Jan 1
New
Jan 7
First Quarter
Jan 15
Full

Hourly Weather History & Observations

Time (CST) Temp. Windchill Dew Point Humidity Pressure Visibility Wind Dir Wind Speed Gust Speed Precip Events Conditions
12:53 AM 1.9 °F -19.8 °F -2.9 °F 80% 30.23 in 10.0 mi SE 20.7 mph 26.5 mph N/A   Mostly Cloudy
1:53 AM 5.0 °F -13.6 °F -0.9 °F 76% 30.20 in 10.0 mi SE 16.1 mph - N/A   Overcast
2:53 AM 6.1 °F -13.3 °F -0.0 °F 76% 30.15 in 10.0 mi SE 18.4 mph - N/A   Mostly Cloudy
3:53 AM 7.0 °F -10.4 °F 1.9 °F 80% 30.13 in 10.0 mi SE 15.0 mph - N/A   Scattered Clouds
4:53 AM 9.0 °F -11.0 °F 5.0 °F 84% 30.04 in 10.0 mi SE 21.9 mph - N/A   Mostly Cloudy
5:53 AM 10.9 °F -5.4 °F 6.1 °F 81% 30.05 in 10.0 mi SE 15.0 mph - N/A   Clear
6:53 AM 10.9 °F -1.8 °F 7.0 °F 84% 30.05 in 10.0 mi ESE 9.2 mph - N/A   Mostly Cloudy
7:53 AM 12.0 °F 5.9 °F 7.0 °F 80% 30.03 in 10.0 mi Variable 3.5 mph - N/A   Overcast
8:53 AM 12.0 °F 1.5 °F 8.1 °F 84% 30.04 in 10.0 mi ESE 6.9 mph - 0.00 in   Overcast
9:25 AM 12.2 °F 2.9 °F 8.6 °F 85% 29.92 in 5.0 mi East 5.8 mph - 0.00 in Rain Light Freezing Rain
9:33 AM 14.0 °F 8.2 °F 8.6 °F 79% 29.94 in 3.0 mi ESE 3.5 mph - 0.00 in Rain Light Freezing Rain
9:35 AM 14.0 °F - 10.4 °F 86% 29.94 in 4.0 mi Calm Calm - 0.00 in Rain Light Freezing Rain
9:53 AM 14.0 °F 8.2 °F 10.0 °F 84% 30.07 in 5.0 mi SW 3.5 mph - 0.00 in Rain Light Freezing Rain
10:00 AM 14.0 °F 6.5 °F 10.4 °F 86% 29.96 in 3.0 mi West 4.6 mph - 0.00 in Snow Light Snow
10:11 AM 14.0 °F - 10.4 °F 86% 29.96 in 2.0 mi Calm Calm - 0.00 in Snow Light Snow
10:22 AM 14.0 °F 8.2 °F 10.4 °F 86% 29.96 in 5.0 mi West 3.5 mph - 0.00 in Snow Light Snow
10:34 AM 14.0 °F 8.2 °F 10.4 °F 86% 29.97 in 8.0 mi WNW 3.5 mph - 0.00 in   Overcast
10:53 AM 15.1 °F 9.4 °F 10.9 °F 84% 30.06 in 6.0 mi NW 3.5 mph - 0.00 in Snow Light Snow
11:53 AM 16.0 °F 7.4 °F 12.9 °F 88% 30.08 in 7.0 mi West 5.8 mph - 0.00 in   Overcast
12:53 PM 19.9 °F 9.3 °F 16.0 °F 85% 30.08 in 10.0 mi NW 9.2 mph - 0.10 in   Overcast
1:53 PM 21.9 °F 11.0 °F 18.0 °F 85% 30.11 in 10.0 mi NW 10.4 mph - N/A   Overcast
2:11 PM 21.2 °F 10.9 °F 17.6 °F 86% 30.02 in 10.0 mi WNW 9.2 mph - N/A   Mostly Cloudy
2:53 PM 23.0 °F 13.9 °F 19.0 °F 85% 30.12 in 10.0 mi NW 8.1 mph - 0.01 in   Partly Cloudy
3:53 PM 24.1 °F 18.2 °F 19.9 °F 84% 30.17 in 10.0 mi WNW 4.6 mph - N/A   Clear
4:53 PM 21.9 °F 15.7 °F 19.0 °F 89% 30.19 in 10.0 mi WSW 4.6 mph - N/A   Clear
5:53 PM 24.1 °F 12.0 °F 21.0 °F 88% 30.20 in 10.0 mi WNW 13.8 mph - N/A   Clear
6:53 PM 27.0 °F 16.7 °F 23.0 °F 85% 30.21 in 10.0 mi West 11.5 mph - N/A   Clear
7:53 PM 26.1 °F 15.6 °F 23.0 °F 88% 30.21 in 10.0 mi West 11.5 mph - N/A   Partly Cloudy
8:53 PM 27.0 °F 17.3 °F 21.9 °F 81% 30.21 in 10.0 mi WSW 10.4 mph - N/A   Mostly Cloudy
9:53 PM 28.0 °F 19.3 °F 23.0 °F 81% 30.20 in 10.0 mi WSW 9.2 mph - N/A   Overcast
10:53 PM 30.9 °F 21.2 °F 25.0 °F 79% 30.17 in 10.0 mi West 12.7 mph - N/A   Overcast
11:53 PM 32.0 °F 21.6 °F 26.1 °F 79% 30.17 in 10.0 mi West 15.0 mph - N/A   Overcast